TimeCST,TemperatureF,Dew PointF,Humidity,Sea Level PressureIn,VisibilityMPH,Wind Direction,Wind SpeedMPH,Gust SpeedMPH,PrecipitationIn,Events,Conditions,WindDirDegrees,DateUTC
12:15 AM,30.2,26.6,86,30.35,10.0,Calm,Calm,-,N/A,,Overcast,0,2013-03-07 06:15:00
12:35 AM,30.2,26.6,86,30.35,10.0,Calm,Calm,-,N/A,,Overcast,0,2013-03-07 06:35:00
12:55 AM,30.2,24.8,80,30.35,10.0,North,3.5,-,N/A,,Overcast,10,2013-03-07 06:55:00
1:15 AM,30.2,24.8,80,30.36,10.0,Calm,Calm,-,N/A,,Overcast,0,2013-03-07 07:15:00
1:35 AM,30.2,24.8,80,30.36,10.0,North,3.5,-,N/A,,Overcast,360,2013-03-07 07:35:00
1:55 AM,30.2,24.8,80,30.35,10.0,Calm,Calm,-,N/A,,Overcast,0,2013-03-07 07:55:00
2:15 AM,30.2,24.8,80,30.35,10.0,Calm,Calm,-,N/A,,Overcast,0,2013-03-07 08:15:00
2:35 AM,30.2,24.8,80,30.35,10.0,Calm,Calm,-,N/A,,Overcast,0,2013-03-07 08:35:00
2:55 AM,30.2,24.8,80,30.35,10.0,Calm,Calm,-,N/A,,Overcast,0,2013-03-07 08:55:00
3:15 AM,30.2,24.8,80,30.36,10.0,Calm,Calm,-,N/A,,Overcast,0,2013-03-07 09:15:00
3:35 AM,30.2,24.8,80,30.37,10.0,Calm,Calm,-,N/A,,Overcast,0,2013-03-07 09:35:00
3:55 AM,30.2,24.8,80,30.37,10.0,Calm,Calm,-,N/A,,Overcast,0,2013-03-07 09:55:00
4:15 AM,30.2,26.6,86,30.37,10.0,Calm,Calm,-,N/A,,Overcast,0,2013-03-07 10:15:00
4:35 AM,30.2,24.8,80,30.38,10.0,North,3.5,-,N/A,,Overcast,360,2013-03-07 10:35:00
4:55 AM,30.2,24.8,80,30.38,10.0,Calm,Calm,-,N/A,,Overcast,0,2013-03-07 10:55:00
5:15 AM,30.2,26.6,86,30.38,10.0,Calm,Calm,-,N/A,,Overcast,0,2013-03-07 11:15:00
5:35 AM,30.2,24.8,80,30.39,10.0,Calm,Calm,-,N/A,,Overcast,0,2013-03-07 11:35:00
5:55 AM,30.2,26.6,86,30.39,10.0,Calm,Calm,-,N/A,,Overcast,0,2013-03-07 11:55:00
6:15 AM,30.2,26.6,86,30.39,10.0,Calm,Calm,-,N/A,,Overcast,0,2013-03-07 12:15:00
6:35 AM,30.2,26.6,86,30.39,10.0,Calm,Calm,-,N/A,,Overcast,0,2013-03-07 12:35:00
6:55 AM,30.2,26.6,86,30.40,10.0,Calm,Calm,-,N/A,,Overcast,0,2013-03-07 12:55:00
7:15 AM,30.2,26.6,86,30.40,10.0,Calm,Calm,-,N/A,,Overcast,0,2013-03-07 13:15:00
7:35 AM,30.2,26.6,86,30.40,10.0,Calm,Calm,-,N/A,,Overcast,0,2013-03-07 13:35:00
7:55 AM,30.2,26.6,86,30.41,10.0,Calm,Calm,-,N/A,,Overcast,0,2013-03-07 13:55:00
8:15 AM,32.0,26.6,80,30.41,10.0,Calm,Calm,-,N/A,,Overcast,0,2013-03-07 14:15:00
8:35 AM,32.0,26.6,80,30.41,10.0,Calm,Calm,-,N/A,,Overcast,0,2013-03-07 14:35:00
8:55 AM,32.0,26.6,80,30.42,10.0,East,3.5,-,N/A,,Overcast,90,2013-03-07 14:55:00
9:15 AM,33.8,26.6,75,30.43,10.0,NE,4.6,-,N/A,,Overcast,50,2013-03-07 15:15:00
9:35 AM,33.8,26.6,75,30.43,10.0,ENE,5.8,-,N/A,,Overcast,60,2013-03-07 15:35:00
9:55 AM,33.8,26.6,75,30.42,10.0,ESE,4.6,-,N/A,,Overcast,110,2013-03-07 15:55:00
10:15 AM,33.8,26.6,75,30.42,10.0,East,6.9,-,N/A,,Overcast,100,2013-03-07 16:15:00
10:35 AM,33.8,26.6,75,30.42,10.0,Calm,Calm,-,N/A,,Overcast,0,2013-03-07 16:35:00
10:55 AM,33.8,26.6,75,30.43,10.0,ESE,4.6,-,N/A,,Overcast,120,2013-03-07 16:55:00
11:15 AM,33.8,26.6,75,30.43,10.0,Calm,Calm,-,N/A,,Overcast,0,2013-03-07 17:15:00
11:35 AM,35.6,26.6,70,30.43,10.0,Calm,Calm,-,N/A,,Overcast,0,2013-03-07 17:35:00
11:55 AM,35.6,26.6,70,30.42,10.0,NE,3.5,-,N/A,,Overcast,40,2013-03-07 17:55:00
12:15 PM,35.6,26.6,70,30.42,10.0,Calm,Calm,-,N/A,,Overcast,0,2013-03-07 18:15:00
12:35 PM,35.6,26.6,70,30.41,10.0,Calm,Calm,-,N/A,,Overcast,0,2013-03-07 18:35:00
12:55 PM,37.4,28.4,70,30.39,10.0,ESE,3.5,-,N/A,,Overcast,110,2013-03-07 18:55:00
1:15 PM,35.6,26.6,70,30.39,10.0,Calm,Calm,-,N/A,,Overcast,0,2013-03-07 19:15:00
1:35 PM,37.4,28.4,70,30.38,10.0,Calm,Calm,-,N/A,,Overcast,0,2013-03-07 19:35:00
1:55 PM,37.4,28.4,70,30.37,10.0,Calm,Calm,-,N/A,,Overcast,0,2013-03-07 19:55:00
2:15 PM,37.4,28.4,70,30.38,10.0,SE,3.5,-,N/A,,Overcast,130,2013-03-07 20:15:00
2:35 PM,37.4,28.4,70,30.37,10.0,SE,3.5,-,N/A,,Overcast,130,2013-03-07 20:35:00
2:55 PM,37.4,28.4,70,30.38,10.0,Calm,Calm,-,N/A,,Mostly Cloudy,0,2013-03-07 20:55:00
3:15 PM,37.4,28.4,70,30.38,10.0,Calm,Calm,-,N/A,,Mostly Cloudy,0,2013-03-07 21:15:00
3:35 PM,37.4,28.4,70,30.37,10.0,Calm,Calm,-,N/A,,Overcast,0,2013-03-07 21:35:00
3:55 PM,37.4,28.4,70,30.37,10.0,Calm,Calm,-,N/A,,Mostly Cloudy,0,2013-03-07 21:55:00
4:15 PM,39.2,28.4,65,30.37,10.0,East,4.6,-,N/A,,Mostly Cloudy,90,2013-03-07 22:15:00
4:35 PM,37.4,28.4,70,30.37,10.0,East,5.8,-,N/A,,Mostly Cloudy,90,2013-03-07 22:35:00
4:55 PM,37.4,28.4,70,30.37,10.0,ESE,3.5,-,N/A,,Mostly Cloudy,110,2013-03-07 22:55:00
5:15 PM,37.4,28.4,70,30.38,10.0,NE,4.6,-,N/A,,Mostly Cloudy,50,2013-03-07 23:15:00
5:35 PM,35.6,28.4,75,30.38,10.0,ENE,8.1,-,N/A,,Mostly Cloudy,70,2013-03-07 23:35:00
5:55 PM,35.6,28.4,75,30.39,10.0,ENE,4.6,-,N/A,,Scattered Clouds,70,2013-03-07 23:55:00
7:35 PM,32.0,26.6,80,30.39,10.0,ENE,3.5,-,N/A,,Clear,60,2013-03-08 01:35:00
7:55 PM,32.0,26.6,80,30.38,10.0,ENE,3.5,-,N/A,,Clear,60,2013-03-08 01:55:00
8:15 PM,32.0,26.6,80,30.38,10.0,Calm,Calm,-,N/A,,Clear,0,2013-03-08 02:15:00
8:35 PM,32.0,26.6,80,30.38,10.0,Calm,Calm,-,N/A,,Clear,0,2013-03-08 02:35:00
8:55 PM,32.0,26.6,80,30.38,10.0,Calm,Calm,-,N/A,,Clear,0,2013-03-08 02:55:00
9:15 PM,30.2,26.6,86,30.38,10.0,Calm,Calm,-,N/A,,Clear,0,2013-03-08 03:15:00
9:35 PM,30.2,26.6,86,30.38,10.0,Calm,Calm,-,N/A,,Clear,0,2013-03-08 03:35:00
9:55 PM,30.2,26.6,86,30.39,10.0,Calm,Calm,-,N/A,,Clear,0,2013-03-08 03:55:00
10:15 PM,30.2,26.6,86,30.38,10.0,Calm,Calm,-,N/A,,Clear,0,2013-03-08 04:15:00
10:35 PM,30.2,26.6,86,30.39,10.0,Calm,Calm,-,N/A,,Clear,0,2013-03-08 04:35:00
10:55 PM,30.2,26.6,86,30.38,10.0,NE,3.5,-,N/A,,Clear,50,2013-03-08 04:55:00
11:15 PM,30.2,26.6,86,30.38,10.0,NE,3.5,-,N/A,,Clear,50,2013-03-08 05:15:00
11:35 PM,30.2,26.6,86,30.39,10.0,Calm,Calm,-,N/A,,Clear,0,2013-03-08 05:35:00
11:55 PM,30.2,26.6,86,30.39,10.0,Calm,Calm,-,N/A,,Clear,0,2013-03-08 05:55:00